GFSSGP_sfc_temp_021.txt.gz
Temp
66 66 63 63 54 48 43 50 52 54 54 56 60 58 58 57 58 51 57 61 63 65 67 71 76 76 76 76 75 75 76 76 76 76 77 76 75 74 73 73 74 75 75 75 74 73 72 72 72
64 69 63 55 47 40 45 49 54 57 57 58 57 56 55 58 56 55 57 62 64 64 66 68 74 74 75 75 75 75 75 75 75 75 73 73 73 72 72 72 72 73 74 73 72 72 71 70 70
67 68 59 51 42 42 45 52 54 55 54 54 54 57 56 59 55 56 59 62 62 62 64 66 71 74 74 74 74 75 75 74 73 73 72 72 72 71 71 71 71 72 72 71 71 70 69 69 69
64 62 56 48 44 49 52 57 56 53 55 57 55 55 56 60 59 59 60 60 59 60 62 66 71 73 73 73 73 74 74 73 72 72 72 71 71 70 70 70 70 70 70 70 69 69 69 69 69
59 55 48 42 45 51 54 58 56 56 53 55 56 55 55 57 57 58 59 60 58 58 60 63 70 72 72 72 73 73 73 72 71 71 70 70 70 69 69 69 69 69 69 69 68 68 68 68 67
55 53 45 42 45 53 56 57 56 54 53 53 53 50 57 53 56 55 56 56 58 57 58 61 66 69 70 71 71 71 72 71 70 70 70 69 69 68 68 68 68 68 68 68 68 67 66 66 66
53 49 43 41 47 52 56 56 54 54 52 57 54 53 56 51 56 54 54 54 55 56 56 57 60 63 67 68 69 70 70 69 69 69 68 68 67 67 67 67 68 68 67 67 66 65 65 65 64
53 51 42 43 46 52 56 55 56 57 59 56 61 56 56 54 54 53 52 52 52 53 54 54 55 57 58 59 65 66 67 68 67 67 66 65 64 65 65 65 66 67 66 65 64 64 63 62 62
54 47 42 47 49 53 55 54 57 56 54 55 60 56 54 53 52 51 48 48 49 52 52 51 52 53 53 55 58 63 64 65 65 63 62 58 50 52 54 60 64 64 64 64 62 61 60 58 58
53 43 49 53 53 53 55 55 55 53 53 54 57 54 52 52 52 50 48 49 48 49 50 50 50 50 51 56 53 53 54 53 52 51 50 48 48 48 52 56 61 61 61 61 60 58 56 51 45
51 49 52 57 58 58 56 53 57 53 54 56 59 60 52 50 50 52 52 53 53 53 51 50 50 48 48 51 48 48 47 47 47 48 47 46 47 46 45 44 44 43 49 44 46 45 44 45 44
49 55 56 59 59 56 54 56 54 55 65 62 61 56 52 50 51 53 53 53 51 49 52 51 49 49 46 46 47 46 45 44 44 45 46 44 43 42 42 41 41 41 41 41 41 41 43 43 44
51 53 57 57 57 56 56 55 54 56 62 60 60 57 54 52 54 55 57 55 53 51 52 51 49 50 49 46 45 45 45 46 44 44 45 44 42 41 41 41 40 40 40 40 40 40 41 41 43
52 54 56 54 56 56 56 56 53 63 58 58 57 56 54 53 54 52 51 54 52 54 52 51 50 51 50 49 47 47 46 45 44 43 44 44 42 41 40 40 40 39 40 39 40 40 39 39 40
53 51 52 52 54 54 53 52 49 64 56 58 56 56 54 55 53 54 57 56 56 56 54 51 51 51 50 49 48 47 46 46 44 44 43 43 42 41 40 39 38 39 39 39 39 39 39 39 40
47 44 42 51 50 52 55 49 62 59 55 57 57 54 54 56 56 59 59 58 57 55 53 52 55 51 50 50 49 48 46 46 45 43 42 42 42 41 39 38 38 38 38 38 37 37 37 37 37
39 38 40 47 53 51 50 47 58 56 53 54 55 56 57 55 55 56 60 58 57 56 55 52 53 51 51 50 49 47 45 46 45 42 42 42 42 41 40 38 37 37 37 37 38 35 36 35 36
38 36 39 42 50 45 44 46 54 59 53 53 55 57 58 60 63 64 58 58 58 55 56 54 53 52 51 50 46 42 42 43 41 43 43 42 42 41 39 37 37 36 35 35 36 35 34 34 34
43 40 40 47 53 44 45 48 52 59 58 51 53 57 60 62 67 64 58 54 53 52 53 52 51 52 50 46 44 44 45 43 42 43 43 42 41 40 38 36 36 35 35 35 36 34 34 33 33
44 43 42 50 53 45 47 48 54 54 58 61 62 60 62 62 63 64 54 50 51 52 53 52 52 51 51 50 50 49 49 42 45 42 41 42 40 39 38 37 36 35 34 34 34 34 32 32 31
42 39 45 44 45 43 41 44 47 50 55 59 61 63 63 62 62 63 53 49 50 51 51 52 51 50 51 51 48 38 39 37 37 37 39 40 40 38 38 37 35 34 34 33 33 33 33 31 31
44 46 47 44 36 37 40 36 43 51 54 51 57 61 58 59 60 59 56 49 47 51 51 51 51 49 51 49 46 46 46 45 43 45 42 39 38 38 37 36 35 34 33 32 32 33 32 32 31
45 46 44 39 35 32 33 31 38 45 45 51 57 59 61 61 57 59 57 51 51 48 47 49 49 48 50 48 48 47 47 47 42 40 37 38 36 37 36 36 33 33 32 32 33 31 32 31 31
45 40 38 33 33 29 37 37 40 40 47 48 53 56 58 61 58 55 51 50 47 43 44 46 47 46 48 47 47 47 47 39 37 36 38 38 37 36 35 35 34 32 32 32 32 31 31 30 30
44 37 29 26 23 29 38 33 47 50 51 53 57 57 56 53 53 53 50 48 44 41 41 43 45 45 46 45 46 46 46 43 43 39 40 38 36 35 34 35 32 33 32 32 31 30 30 30 29
39 40 29 20 24 37 34 35 49 52 54 53 49 50 52 52 53 50 50 47 43 41 40 44 42 44 44 43 44 45 46 44 43 41 41 39 39 39 36 35 34 32 31 31 31 30 30 29 30
36 35 42 31 19 20 38 44 54 46 48 47 51 47 48 49 48 47 46 44 42 41 40 41 41 43 43 43 44 44 44 43 42 39 39 40 39 38 34 36 34 32 32 31 30 30 29 29 29
41 41 32 30 24 19 35 36 42 48 55 59 49 49 47 47 49 49 47 45 42 41 41 41 41 43 43 42 44 44 43 43 40 36 38 38 37 36 34 35 34 32 31 31 30 28 28 28 28
35 35 36 37 33 31 28 36 55 51 47 46 46 48 48 51 53 51 50 46 44 42 40 40 40 41 41 41 42 41 40 41 40 38 38 38 36 35 34 34 33 33 31 30 29 29 28 27 26
40 39 40 33 30 35 37 38 57 56 56 55 57 56 49 50 51 50 50 51 47 44 41 41 40 41 42 42 41 40 41 40 40 39 38 38 35 35 34 34 33 33 32 30 29 28 28 26 25

GFSSGP_sfc_temp_024.txt.gz
Temp
65 64 62 62 53 47 42 48 49 52 52 54 58 56 56 56 56 51 57 61 62 65 66 70 74 76 76 76 76 76 76 76 76 76 76 76 76 74 74 74 75 75 76 75 74 73 72 72 73
64 67 62 53 46 39 43 47 52 56 55 55 55 55 54 58 56 56 55 61 63 65 66 68 73 75 76 76 75 75 76 76 76 75 74 74 73 73 73 73 74 74 75 74 73 71 70 70 70
66 65 58 49 40 40 44 50 52 54 53 53 53 54 55 58 55 56 58 61 62 63 65 67 72 74 75 75 75 75 75 76 75 74 74 74 73 72 72 72 72 73 73 72 71 70 69 69 70
63 61 55 47 43 48 50 53 53 52 53 54 53 54 56 59 60 59 59 60 60 61 63 68 72 73 74 74 74 75 75 74 75 74 74 73 72 71 71 71 71 71 71 70 70 69 69 69 69
58 53 47 41 43 48 51 55 55 53 52 52 53 54 55 56 56 56 57 60 60 59 61 64 70 72 73 73 74 74 75 75 75 73 72 71 71 70 70 70 70 70 70 69 69 69 68 67 67
55 51 44 40 43 50 53 55 54 52 52 52 51 50 57 52 53 54 56 56 58 58 59 61 66 71 71 72 73 74 74 74 72 71 71 70 70 70 69 69 69 69 69 69 68 67 67 66 66
52 48 42 39 45 49 53 52 50 51 51 56 53 51 56 52 55 53 53 54 55 57 57 58 62 68 68 70 71 71 72 71 71 70 70 69 69 68 68 68 68 69 68 67 67 66 66 65 64
52 50 40 40 43 49 53 52 54 55 58 54 57 55 56 52 52 51 52 52 53 54 55 56 57 59 60 61 66 68 68 69 69 68 67 66 66 66 66 65 67 68 67 66 65 64 64 63 62
53 46 40 45 46 52 52 51 54 54 53 52 58 55 55 50 50 49 48 49 50 52 52 53 54 55 56 56 59 63 65 66 66 64 63 58 52 54 55 60 66 66 65 64 64 62 61 59 59
51 43 47 51 50 52 53 53 54 52 53 53 56 57 51 50 48 49 48 50 48 50 50 51 51 52 52 56 55 55 56 55 54 53 51 49 48 49 52 57 63 64 63 63 62 60 57 50 44
49 48 51 55 56 54 54 52 55 51 54 55 59 61 52 49 48 49 50 52 54 53 51 51 50 50 50 52 50 49 49 49 49 48 47 46 47 47 46 46 45 45 50 45 47 44 43 44 43
47 53 54 55 56 53 52 54 53 55 64 62 61 59 52 50 49 51 51 52 51 49 52 50 49 49 48 49 49 48 48 46 45 45 45 43 42 42 42 41 41 41 40 41 40 40 42 42 43
48 51 55 55 55 55 54 54 53 54 62 60 59 57 55 52 51 53 54 53 51 49 51 50 50 50 50 47 46 46 46 47 45 44 44 43 42 41 40 40 39 39 39 39 39 40 40 41 42
50 51 52 54 54 54 54 58 51 58 58 58 55 55 54 53 54 50 49 53 51 53 51 52 50 51 50 50 47 48 47 44 44 42 44 43 42 40 40 39 39 38 39 39 39 39 39 39 40
50 49 50 50 52 51 51 50 48 61 53 57 56 54 55 53 52 54 57 56 56 55 54 51 51 51 49 50 48 47 47 45 44 44 42 42 42 41 39 38 38 38 38 38 38 38 38 38 40
45 42 41 49 48 49 53 45 63 59 52 56 55 55 53 55 54 57 58 57 56 56 52 52 54 51 50 50 48 48 46 46 46 43 43 43 42 41 39 38 37 37 37 37 37 37 36 37 37
38 37 39 44 51 48 48 44 57 54 51 53 53 55 57 58 57 55 57 58 57 56 55 52 52 50 50 50 49 47 45 46 45 43 43 42 42 41 40 39 37 37 36 36 37 35 36 36 36
38 34 38 39 47 44 42 44 51 58 50 56 58 59 57 61 64 69 59 56 56 55 56 54 51 52 50 50 47 42 41 44 41 43 43 42 43 41 39 37 37 36 35 35 35 35 33 34 34
40 39 38 45 50 42 47 49 52 57 57 57 59 60 57 60 66 66 58 54 51 49 52 51 49 51 49 47 44 43 45 43 43 44 44 43 42 41 39 37 36 35 35 34 35 34 34 33 32
43 41 40 48 51 43 44 46 52 54 56 60 61 61 63 64 62 63 56 51 48 51 51 51 51 50 50 50 50 49 49 46 47 44 42 43 40 40 40 38 36 35 34 34 34 34 32 32 31
40 37 43 42 43 41 39 42 44 49 52 57 59 60 60 60 61 62 57 47 47 46 48 51 51 51 51 51 49 38 38 36 37 37 40 41 41 39 40 37 37 35 35 35 33 33 33 33 31
43 45 45 42 36 33 40 34 45 56 56 50 55 55 52 54 56 54 53 49 49 49 48 50 50 50 50 49 48 47 48 45 45 46 44 41 41 40 39 38 37 36 35 33 34 33 32 33 33
43 44 41 36 33 31 31 31 36 43 44 50 52 54 54 52 52 54 54 53 51 49 45 47 46 48 49 49 48 47 49 49 43 44 41 39 38 38 38 38 36 35 35 33 33 31 32 33 32
44 39 37 32 32 26 35 36 35 40 46 48 52 54 53 55 54 52 51 49 48 45 43 42 43 45 47 47 48 47 48 43 39 38 39 38 37 37 36 37 36 35 35 33 34 33 32 31 32
40 37 29 25 22 29 35 31 44 47 51 52 55 55 53 50 50 49 52 52 47 45 40 40 41 41 43 43 45 45 47 41 42 39 40 37 37 36 36 36 35 34 35 34 33 33 32 31 31
37 39 29 22 21 35 31 30 42 49 52 50 47 51 48 49 48 49 50 47 45 43 40 39 39 40 40 40 42 42 43 42 43 40 41 40 40 40 39 37 37 36 34 33 33 33 32 30 31
35 35 40 33 22 21 38 44 47 45 45 44 48 47 47 48 48 50 49 47 44 42 40 39 39 39 39 39 41 40 42 41 41 38 37 39 38 39 36 37 35 35 34 33 32 32 31 31 31
40 41 33 31 24 19 33 32 39 46 51 51 47 45 47 48 48 49 48 48 46 43 40 39 39 39 39 39 41 43 42 42 40 36 37 37 38 37 34 36 36 34 34 33 32 31 30 31 30
35 35 36 37 33 28 26 34 51 46 42 43 43 47 48 51 52 49 47 47 47 46 42 38 37 37 38 37 38 39 39 38 36 36 38 38 37 36 34 36 36 34 34 33 32 32 30 30 29
41 40 40 33 30 32 36 36 55 52 52 48 45 40 39 39 39 40 41 42 42 43 43 43 42 38 38 39 37 36 37 35 36 38 38 38 37 36 36 36 35 34 34 34 33 31 31 30 28

GFSSGP_sfc_temp_030.txt.gz
Temp
79 83 87 83 71 69 65 66 70 69 71 75 75 74 74 75 74 70 76 79 78 82 82 79 75 76 77 77 76 76 76 77 77 77 76 76 76 76 76 75 76 76 76 75 74 73 73 73 72
84 81 85 80 67 63 68 70 67 72 74 74 74 74 74 75 79 80 77 78 79 82 81 81 73 75 76 76 76 76 76 77 77 77 76 76 75 75 75 75 75 76 76 75 73 72 71 71 71
81 81 78 73 67 65 66 70 73 73 74 74 74 76 77 77 80 80 79 79 78 81 81 81 72 75 76 76 75 75 75 76 77 77 76 76 76 75 75 74 74 75 75 73 72 71 71 70 70
83 83 77 67 64 69 68 75 74 74 73 74 75 73 78 82 80 79 76 79 78 80 80 76 72 75 75 75 75 75 75 76 76 76 75 74 74 73 72 72 73 74 72 72 71 71 70 69 69
83 79 69 63 64 68 72 73 72 72 73 74 73 75 76 79 76 76 77 77 78 79 79 79 72 73 75 75 75 75 75 76 76 76 75 73 73 72 72 72 72 71 71 71 70 70 68 68 67
76 75 65 63 65 69 72 74 72 72 74 73 71 74 78 77 75 77 77 77 80 79 77 78 70 70 72 74 74 74 75 75 75 75 74 72 72 72 71 71 71 71 70 70 70 68 68 67 66
72 70 64 63 64 65 71 72 72 74 73 75 77 73 81 79 78 74 75 78 78 79 76 77 78 74 67 70 71 72 73 74 74 74 73 71 71 71 70 70 70 70 70 70 68 68 67 66 65
75 72 61 64 65 65 73 71 74 74 75 74 77 74 78 79 71 71 72 74 75 76 76 76 77 78 78 77 67 68 70 71 72 70 69 68 68 68 68 67 69 70 69 68 67 66 66 65 63
71 66 63 64 62 70 73 71 73 75 75 74 76 78 82 70 68 70 69 70 71 72 73 75 75 76 78 77 73 66 67 67 67 67 65 65 72 72 70 67 67 69 68 67 66 65 64 62 60
69 64 66 72 73 70 73 72 75 72 74 75 75 80 75 69 69 71 71 72 70 71 71 73 74 74 76 75 73 72 73 75 72 69 69 72 72 72 70 65 64 66 65 65 65 63 59 59 67
66 65 71 70 72 71 70 70 73 72 70 77 77 81 81 72 71 71 74 76 76 75 74 71 72 73 73 73 72 72 73 74 71 70 71 70 69 67 68 69 69 68 62 67 65 61 65 63 66
61 67 69 69 68 67 67 70 69 70 75 82 83 81 81 74 74 73 73 76 75 74 74 72 72 71 71 73 72 73 70 71 68 70 69 67 66 66 67 67 67 66 66 64 62 63 61 61 61
61 67 68 68 65 66 68 66 68 70 77 80 80 74 74 77 77 78 75 75 75 72 72 72 71 70 70 69 71 72 71 70 69 69 67 67 67 65 66 66 65 65 64 63 62 61 61 60 60
66 64 66 67 66 66 63 69 68 73 78 76 76 74 77 76 77 77 74 72 72 72 72 73 70 70 70 69 70 70 70 71 70 68 67 66 67 65 64 64 63 63 63 63 62 62 61 60 59
63 60 66 68 65 64 64 60 62 74 76 72 76 79 77 75 76 75 78 75 74 73 73 72 70 70 69 68 69 69 69 69 68 67 66 64 64 64 64 63 62 62 61 60 60 59 59 59 59
60 59 56 68 60 62 64 59 72 78 72 72 77 79 78 79 81 80 79 78 77 74 72 72 69 67 68 68 68 68 69 67 67 67 66 63 62 64 62 62 61 61 59 60 59 59 58 60 59
59 54 57 59 64 61 60 60 70 72 70 70 72 75 76 78 80 81 82 78 78 77 74 71 70 67 67 67 68 67 67 66 66 67 65 63 61 62 62 61 61 59 58 58 59 58 59 58 57
57 54 56 54 65 60 58 57 64 69 68 67 70 73 74 74 75 78 78 78 77 76 74 73 70 68 67 66 66 66 65 64 66 65 64 63 61 60 60 60 59 57 56 57 57 57 57 58 58
57 55 54 60 64 57 57 59 63 66 67 68 70 72 74 74 76 75 74 74 73 72 70 70 68 66 66 63 62 62 61 61 62 64 62 62 61 59 58 59 58 56 55 56 56 56 53 53 55
55 52 53 59 62 55 57 56 61 65 65 67 68 71 72 72 72 73 73 72 71 69 68 66 66 66 65 64 64 64 64 63 63 62 61 61 59 59 57 57 56 55 55 55 54 53 52 55 54
55 51 53 53 56 57 53 55 57 65 64 67 67 68 67 66 70 71 69 67 66 64 63 63 64 64 64 63 63 62 61 62 60 59 58 57 58 57 56 57 55 54 55 54 53 52 53 51 52
49 59 53 50 48 46 53 44 57 64 66 66 66 65 66 67 67 66 64 61 60 58 59 61 61 61 61 61 60 58 58 58 60 59 58 57 55 56 56 56 55 54 54 54 52 53 54 55 51
51 52 50 48 47 44 49 44 57 58 57 64 63 63 62 61 60 57 57 56 56 55 55 56 58 58 59 59 59 57 56 60 62 61 57 55 53 54 55 55 54 54 53 53 52 51 51 53 56
52 52 51 46 46 39 51 47 51 57 59 61 61 59 56 55 54 53 53 53 52 52 52 53 56 54 55 56 57 56 55 55 56 54 53 53 52 52 53 53 53 54 52 52 51 51 50 51 53
51 47 39 39 38 39 46 44 51 59 61 57 54 51 50 51 50 49 49 49 49 49 49 50 50 50 53 53 54 55 54 55 54 54 52 53 51 50 51 51 51 52 52 52 51 50 50 50 50
47 47 33 27 33 39 46 39 52 60 54 50 49 49 49 48 48 48 48 49 48 48 48 49 48 48 49 50 51 52 53 53 54 55 54 54 53 53 52 51 51 51 52 52 50 50 50 50 49
45 41 50 36 34 30 42 50 54 52 48 47 46 47 46 46 46 46 48 48 48 48 48 47 47 47 47 47 48 48 50 50 51 52 53 53 54 54 52 51 49 50 50 50 50 48 48 48 49
49 51 39 40 26 25 38 43 46 47 43 44 44 43 44 46 46 47 47 47 48 48 49 49 48 46 46 46 47 47 47 47 48 49 48 49 51 51 50 50 48 49 49 48 48 47 48 47 47
43 40 41 37 32 28 27 39 52 45 41 41 42 43 43 44 45 46 47 48 48 48 47 47 47 45 45 45 45 45 46 45 46 46 47 47 48 49 48 48 47 47 47 47 46 47 47 45 46
47 45 43 34 31 34 35 37 53 43 40 40 39 40 42 43 45 46 46 46 46 46 46 45 45 44 44 44 43 44 45 44 44 44 45 45 45 46 46 47 46 46 46 45 44 44 46 44 44

GFSSGP_sfc_temp_033.txt.gz
Temp
81 90 92 86 72 72 68 70 76 74 75 80 80 78 77 79 76 69 81 86 85 86 86 78 75 76 77 76 76 76 76 77 78 77 77 76 76 76 76 76 76 76 76 75 74 74 73 72 72
91 89 87 82 68 66 69 75 71 76 79 80 80 79 78 77 85 85 83 84 84 87 86 82 73 76 76 76 76 76 76 77 77 77 77 76 75 75 76 75 75 76 76 74 73 72 72 71 71
86 88 80 75 71 67 67 74 77 79 81 79 78 81 81 80 86 86 84 84 85 85 86 83 73 75 76 76 75 75 76 76 77 77 77 76 75 75 75 74 75 75 75 73 72 71 71 70 70
86 85 82 70 67 73 73 78 80 79 80 80 80 77 84 88 85 85 83 84 84 85 85 75 73 75 75 75 75 75 75 76 76 76 76 76 76 74 73 73 73 74 73 72 71 71 70 69 69
86 83 71 68 70 74 78 80 78 76 78 79 79 78 80 85 85 83 83 83 83 84 84 80 72 74 75 75 75 75 75 75 76 76 75 75 74 74 72 72 73 73 72 71 71 70 69 68 68
78 80 68 66 71 76 79 79 78 78 80 80 76 78 82 85 82 83 84 83 85 84 82 82 71 71 72 74 74 74 74 75 75 75 75 74 73 73 72 72 72 71 71 71 70 69 68 67 66
74 72 68 68 69 72 76 79 77 79 79 80 83 75 85 84 85 83 83 85 84 85 81 80 79 74 68 71 71 72 73 74 74 74 74 72 71 71 71 71 71 71 71 70 69 68 67 66 65
78 75 68 70 70 70 78 77 80 79 79 82 84 77 80 82 81 80 81 82 82 83 81 80 80 79 77 76 67 69 71 71 72 72 70 68 68 69 68 68 69 70 70 69 68 67 66 65 64
78 68 66 70 69 73 79 75 81 82 78 83 82 81 85 78 77 77 76 77 78 79 80 80 79 80 79 79 74 66 67 68 68 68 65 65 71 72 71 68 68 69 69 68 67 66 65 63 61
72 67 70 78 79 76 79 77 78 78 78 80 82 85 86 79 77 77 77 77 76 76 77 79 79 78 79 80 79 75 74 75 75 75 72 71 72 73 72 67 65 67 66 67 66 65 61 60 67
73 66 76 77 79 78 75 75 80 74 72 80 81 85 87 87 80 77 79 81 82 80 79 77 78 78 78 78 78 76 74 70 74 73 72 70 73 72 70 70 68 67 63 66 65 61 63 66 67
65 73 73 74 76 71 71 77 73 74 76 83 84 85 85 83 83 80 80 81 82 82 81 79 78 77 77 77 76 75 74 73 75 74 71 70 70 69 68 69 68 68 66 67 65 63 64 63 64
66 70 74 75 74 71 72 70 72 73 80 83 84 83 83 82 81 84 84 83 81 80 81 80 77 76 76 75 76 75 75 74 75 74 68 71 69 67 68 68 69 68 67 66 63 63 61 62 62
73 68 69 72 72 72 67 69 72 76 82 82 82 82 83 82 83 83 83 82 80 79 80 80 78 76 76 75 74 75 75 75 73 73 71 70 69 68 67 67 67 67 66 65 64 63 62 61 61
68 62 68 70 73 72 69 63 65 78 81 79 79 82 84 85 84 82 83 82 83 80 80 79 78 76 75 74 73 74 74 74 73 72 72 69 69 69 67 66 65 66 65 63 63 62 62 61 61
63 66 57 71 68 68 66 59 73 80 76 76 77 79 80 82 85 87 88 86 85 83 80 78 76 75 74 74 73 73 74 73 73 72 71 69 68 69 66 65 64 65 63 62 61 60 59 60 59
64 55 60 64 74 67 62 60 71 75 73 73 75 77 79 80 83 85 84 84 84 82 81 78 77 74 73 73 73 72 72 72 72 72 70 69 67 67 66 64 64 63 61 60 60 60 60 58 59
58 60 62 61 68 68 64 63 69 74 73 73 75 76 76 78 80 80 78 78 78 79 79 78 77 75 72 72 71 71 70 70 71 70 69 68 66 65 64 63 62 61 59 58 59 58 59 59 58
62 58 57 62 68 64 62 62 65 70 72 72 75 76 76 75 77 75 72 73 72 72 72 73 73 73 71 69 67 66 66 67 68 68 68 68 66 64 62 62 62 59 57 57 58 57 55 56 58
58 55 55 62 67 63 60 58 63 67 70 72 73 73 73 73 70 68 66 64 64 63 65 67 68 70 69 69 68 68 68 68 68 67 66 66 64 63 61 60 59 58 56 56 56 55 53 54 55
57 55 56 55 60 61 58 56 62 70 73 72 70 70 70 65 63 62 60 59 59 58 60 62 63 65 67 67 66 65 65 65 64 63 63 63 62 61 60 59 59 57 56 55 55 54 53 50 52
50 61 57 53 51 47 57 44 57 65 68 64 64 62 62 60 59 58 57 55 55 55 58 60 60 61 62 63 62 60 60 59 62 62 62 61 60 60 59 58 58 57 55 54 53 54 54 54 48
53 56 54 52 49 49 51 46 56 66 60 59 60 58 56 55 55 54 54 54 54 54 54 57 57 57 58 60 59 59 57 58 60 63 60 58 57 57 58 57 57 56 55 54 53 51 51 54 53
58 54 55 55 50 41 53 51 53 58 59 58 55 54 53 54 54 54 54 54 52 53 53 53 54 54 55 56 57 56 56 55 55 56 55 55 56 55 55 55 55 55 54 52 52 51 50 51 53
52 49 40 39 39 39 51 46 53 60 59 59 52 51 51 52 51 51 51 51 51 50 51 52 51 50 52 52 53 53 53 54 54 55 54 54 53 52 52 53 52 52 53 53 52 50 50 50 50
50 51 40 29 33 39 46 39 52 57 53 53 53 52 51 50 50 50 50 50 50 50 50 50 49 49 50 51 50 51 51 51 53 54 54 54 54 55 55 53 52 51 52 52 51 50 49 50 49
49 43 52 35 34 31 42 51 60 51 50 51 50 50 49 49 50 50 50 50 50 49 49 49 48 48 48 48 49 49 49 48 48 49 51 52 53 53 54 53 51 50 50 50 50 48 47 48 48
48 50 39 38 27 27 39 43 47 49 48 49 47 47 47 49 49 49 49 49 50 50 50 49 49 46 47 47 47 48 47 48 48 48 47 47 49 50 50 50 50 50 49 48 48 47 47 46 47
46 41 42 42 38 30 30 39 58 47 49 46 45 45 46 46 47 48 48 49 49 49 49 48 47 46 45 45 45 45 45 46 46 45 45 45 45 46 46 46 46 47 46 47 46 46 46 45 45
51 46 46 35 33 36 35 37 59 47 46 45 44 44 44 45 46 47 47 47 47 46 46 46 46 44 44 45 44 44 44 44 44 43 43 42 42 43 43 44 43 44 45 45 45 44 45 44 44